CZ-2F DEB, 67692

Orbit data source: Space-Track

CZ-2F DEB, 67692 is space debris in LEO originally from a launch on Sat, 07 Feb 2026 UTC launched from the Jiuquan Satellite Launch Center, China (JSC). Debris objects in space refer to the collection of defunct objects orbiting the Earth. Examples of debris include non-operational satellites, rocket bodies, and fragments generated from explosions, collisions, or faulty payload assembly.

Loading next visibility...
Identifier
67692, 2026-024D
Orbit
LEO
Country
Flag of CNCN / PRC
Related business
Manufacturer
CALT?
Mission
Spacecraft
Bus & Motor
Unknown
Mass
1 kg wet, 1 kg dry
Launch date (UTC)
2026-02-07 (2 months ago)
Launch vehicle
Unknown
Launch site
Jiuquan Satellite Launch Center, China (JSC)
Object type
Payload
Rocket body
Debris
Shape & HBR
Unknown shape, 1.1 m
Radar Cross Section
RCS unknown

Expand to show TLE details & history
Last TLE update: 6 hours ago

TLE from 6 hours ago
0 CZ-2F DEB
1 67692U 26024D   26104.29173668  .00276969  00000-0  27803-2 0  9990
2 67692  50.3113 200.4506 0154732  63.5500 298.1253 15.50642400 10102
Epoch: 2026-04-14T07:00Z
TLE epoch observation values (Epoch: 2026-04-14T07:00:06.049Z)
Latitude
0.00005°
Longitude
-107.04465°
Altitude
367.176 km
Speed
7.718 km/s
True Right ascension
13h 21m 48s
True Declination
0° 00' 00"
Sunlit
Object was in full shadow at epoch
Visualization orbit readout
Latitude
Unknown
Longitude
Unknown
Altitude
Unknown
Speed
Unknown
Apparent Right ascension
Unknown
Apparent Declination
Unknown
Sunlit
N/A
Visualization observer readout
Local Sidereal Time
19:34:51
Azimuth
Unknown
Elevation
Unknown
Doppler factor
Unknown
Orbital elements
Apogee altitude
520.699 km
Perigee altitude
310.458 km
Semi-major axis
6,793.715 km
Eccentricity
0.01547
Inclination
50.3113°
RAAN
200.4506°
Arg. of periapsis
63.55°
True anomaly
296.54739°
Mean anomaly
298.1253°
Eccentric anomaly
297.33777°
Mean motion
3.87599 °/min
Orbital period
92.88 mins
BSTAR
0.0027803
Loading maneuver chart data...
Computing Atmospheric mass density...
Loading historical data...
Loading historical data...
Loading historical data...
Loading historical data...
Loading historical data...
Loading historical data...
Loading historical data...

Documentation

Showing up to 5 results
|